User: anonymous   Login
Location: Unspecified
(0.0000°N, 0.0000°E)
Time: 02:35:38
(UTC+00:00)
Language:

SICRAL 1B - Orbit

View from above orbital plane
View from above orbital plane
View from above satellite
View from above satellite

Ground track
Ground track

The orbit data is extracted from the following two-line orbital elements,

1 34810U 09020A   14298.09764676 0.00000000  00000-0  00000-0 0    09
2 34810   0.0528  80.3229 0003453  38.4779 321.5706  1.00270000    04
Epoch (UTC): 25 October 2014 02:20:36
Eccentricity: 0.0003453
inclination: 0.0528°
perigee height: 35772 km
apogee height: 35801 km
right ascension of ascending node: 80.3229°
argument of perigee: 38.4779°
revolutions per day: 1.00270000
mean anomaly at epoch: 321.5706°
orbit number at epoch: 0

The dashed part of the orbit path shows where the satellite is in the earth's shadow,  

DLR